RYR6TP LEIB-LIME

Flight info

Callsign RYR6TP
Flight time N/A
Altitude 34000
Route KABRE DCT ELTAN DCT MHN DCT MEROS DCT LAPIT DCT CHELY DCT LUMAS DCT UNANA DCT STP DCT RAPED DCT PIGOS DCT EKSID DCT NOSTA DCT EGHIN DCT ITCAP/N0375F180 Q713 AMOXI T836 DIXER
Aircraft B38M/M-SDE1FGHILORVWXY/HB1

Departure

Time 2026-05-07 19:53
Airport Ibiza Airport (LEIB)

Arrival

Time N/A
Airport Il Caravaggio International Airport (LIME)
Time Latitude Longitude Altitude Speed Heading
2026-05-07 18:58 38.87621 1.37064 52 ft 0 kts 332°
2026-05-07 19:35 38.87609 1.37072 51 ft 4 kts 332°
2026-05-07 19:35 38.87590 1.37087 51 ft 4 kts 317°
2026-05-07 19:36 38.87577 1.37114 50 ft 4 kts 275°
2026-05-07 19:36 38.87580 1.37137 50 ft 0 kts 242°
2026-05-07 19:39 38.87578 1.37131 50 ft 3 kts 242°
2026-05-07 19:39 38.87558 1.37082 49 ft 9 kts 243°
2026-05-07 19:40 38.87524 1.37003 47 ft 12 kts 241°
2026-05-07 19:40 38.87479 1.36894 45 ft 15 kts 242°
2026-05-07 19:40 38.87413 1.36788 44 ft 16 kts 185°
2026-05-07 19:40 38.87311 1.36848 38 ft 18 kts 157°
2026-05-07 19:41 38.87268 1.36824 39 ft 7 kts 243°
2026-05-07 19:41 38.87236 1.36741 37 ft 12 kts 242°
2026-05-07 19:41 38.87193 1.36636 36 ft 14 kts 240°
2026-05-07 19:41 38.87143 1.36522 35 ft 15 kts 242°
2026-05-07 19:42 38.87093 1.36397 35 ft 16 kts 242°
2026-05-07 19:42 38.87038 1.36264 34 ft 17 kts 242°
2026-05-07 19:42 38.86980 1.36124 32 ft 18 kts 242°
2026-05-07 19:42 38.86920 1.35978 30 ft 19 kts 242°
2026-05-07 19:43 38.86867 1.35850 28 ft 10 kts 242°
2026-05-07 19:43 38.86812 1.35824 26 ft 10 kts 150°
2026-05-07 19:43 38.86799 1.35833 26 ft 0 kts 151°
2026-05-07 19:43 38.86794 1.35837 26 ft 3 kts 151°
2026-05-07 19:44 38.86787 1.35842 26 ft 0 kts 151°
2026-05-07 19:50 38.86783 1.35845 27 ft 3 kts 151°
2026-05-07 19:50 38.86729 1.35884 28 ft 13 kts 150°
2026-05-07 19:51 38.86716 1.35946 27 ft 8 kts 58°
2026-05-07 19:51 38.86735 1.35985 28 ft 0 kts 63°
2026-05-07 19:51 38.86740 1.35997 28 ft 6 kts 62°
2026-05-07 19:52 38.86837 1.36231 29 ft 64 kts 63°
2026-05-07 19:52 38.87150 1.36985 32 ft 125 kts 62°
2026-05-07 19:52 38.87629 1.38148 125 ft 163 kts 62°
2026-05-07 19:52 38.88186 1.39481 525 ft 179 kts 64°
2026-05-07 19:53 38.88534 1.41014 1253 ft 180 kts 77°
2026-05-07 19:53 38.88693 1.42710 1674 ft 205 kts 89°
2026-05-07 19:53 38.88665 1.44630 2155 ft 221 kts 94°
2026-05-07 19:53 38.88700 1.46546 3220 ft 205 kts 81°
2026-05-07 19:54 38.89010 1.48247 4372 ft 188 kts 75°
2026-05-07 19:54 38.89278 1.49926 4983 ft 201 kts 83°
2026-05-07 19:54 38.89336 1.51801 5125 ft 218 kts 94°
2026-05-07 19:54 38.89125 1.53819 5079 ft 235 kts 102°
2026-05-07 19:55 38.88705 1.55845 5776 ft 233 kts 109°
2026-05-07 19:55 38.88145 1.57831 6539 ft 242 kts 110°
2026-05-07 19:55 38.87515 1.59931 6713 ft 261 kts 109°
2026-05-07 19:55 38.86993 1.62180 6730 ft 263 kts 105°
2026-05-07 19:56 38.86454 1.64401 7677 ft 251 kts 105°
2026-05-07 19:56 38.86211 1.65798 8619 ft 240 kts 103°
2026-05-07 19:56 38.85708 1.67893 9175 ft 255 kts 107°
2026-05-07 19:56 38.85171 1.70120 9727 ft 266 kts 107°
2026-05-07 19:57 38.84456 1.73115 10932 ft 263 kts 108°